Regional Weather Roundup
Issued by NWS Midland/Odessa, TX

Skip options and go directly to product.
Home | Oldest Version | Next Version | Current Version | All | Text Only | Save Text | Print | Product List | Glossary On

Skip product version selection by date and time.   
457
ASUS44 KMAF 211002
RWRMAF
MIDLAND AREA WEATHER ROUNDUP
NATIONAL WEATHER SERVICE MIDLAND TX
400 AM CST FRI NOV 21 2014

...IN SOUTHWEST TEXAS AND SOUTHEAST NEW MEXICO...

CITY           SKY/WX    TMP DP  RH WIND       PRES   REMARKS
ALPINE         CLEAR     44  27  50 S6        30.12S
ANDREWS        FAIR      45  40  85 SW7       30.00R
ARTESIA        NOT AVBL
BIG SPRING     CLOUDY    49  47  93 S7        30.03R
CARLSBAD       MOCLDY    38  26  62 W5        30.00R WCI  34
DRYDEN           N/A     53  52  96 NE6       30.01R
FORT STOCKTON  PTCLDY    52  24  33 SW15      30.00F
GUAD PASS      NOT AVBL
HOBBS          MOCLDY    37  21  52 E7        30.01R WCI  32
MARFA          PTCLDY    32  25  74 N7        30.10S WCI  26
MIDLAND AIRPK  PTCLDY    49  46  87 S8        30.00S
MIDLAND INTL   PTCLDY   N/A N/A N/A MISG      29.99F
ODESSA         CLEAR     48  46  93 SW6       30.00F FOG
PECOS          PTCLDY    41  29  63 CALM      30.00S
PRESIDIO       FAIR      49  34  55 W5        30.02R
SEMINOLE       PTCLDY    34  25  70 CALM      30.01S
SNYDER         CLEAR     44  42  92 S5        30.01S
WINK             N/A    N/A N/A N/A N3        29.99S
$$
...OTHER STATIONS IN TEXAS...

CITY           SKY/WX    TMP DP  RH WIND       PRES   REMARKS
ABILENE        PTCLDY    55  52  89 S12       30.00S
AMARILLO       CLEAR     29  27  92 NW6       30.03R WCI  23
AUSTIN         CLOUDY    63  63 100 S7        30.04S
BROWNSVILLE    CLOUDY    69  67  93 E3        30.02S
CORPUS CHRISTI CLOUDY    66  64  93 S6        30.03S
DALLAS FTW     CLOUDY    60  58  92 SE13      30.06S
DEL RIO        FOG       57  56  96 CALM      30.00F VSB 1/4
EL PASO        MOCLDY    45  22  40 CALM      30.02S
HOUSTON INT    CLOUDY    62  61  96 E8        30.09F
LUBBOCK        PTCLDY    30  27  88 CALM      29.99R
SAN ANGELO     CLOUDY    58  55  90 S15G23    30.02R
SAN ANTONIO    DRIZZLE   65  63  93 S6        30.04F FOG
WACO           CLOUDY    59  59 100 S8        30.06S FOG
WICHITA FALLS  NOT AVBL
$$
...OTHER LOCATIONS IN NEW MEXICO...

CITY           SKY/WX    TMP DP  RH WIND       PRES   REMARKS
ALAMAGORDO     MOCLDY    36  14  41 MISG      30.03S
ALBUQUERQUE    PTCLDY    37  12  35 N3        30.06S
CANNON AFB     CLEAR     28  23  81 N8        30.01S WCI  20
CLOVIS         CLEAR     25  19  80 N8        30.00F WCI  16
HOLLOMAN AFB   NOT AVBL
ROSWELL        MOCLDY    38  21  50 CALM      30.01R
RUIDOSO        PTCLDY    34  14  44 W6        30.10S WCI  29
SANTA FE       PTCLDY    26  13  57 N8        30.06S WCI  18
TRUTH OR CONSE PTCLDY    39  18  42 NW3       30.03S
TUCUMCARI      CLEAR     28  24  85 W5        30.02R WCI  23
$$

USA.gov is the U.S. government's official web portal to all federal, state and local government web resources and services.